weather.gov     
National Weather Service

Regional Weather Roundup
NWS Homepage
This page is being discontinued on March 12, 2014.
The same data is available at this site. Please update your bookmarks.
Thank you, and we apologize for the inconvenience.
Please send an email to SR-SRH.Webmaster@noaa.gov with any concerns.


Current Version
Previous Version:    01  02  03  04  05  06  07  08  09  10  11  12  13  14  15  16  17  18  19  20  21  22  23  24  25  26  
[Printable]
525
ASUS44 KHUN 252310
RWRHUN

WEATHER ROUNDUP FOR THE TENNESSEE VALLEY
NATIONAL WEATHER SERVICE HUNTSVILLE AL
600 PM CDT SAT OCT 25 2014

ALZ001>004-260000-
NORTHWEST ALABAMA

CITY           SKY/WX    TMP DP  RH WIND       PRES   REMARKS
COURTLAND HCN    N/A     75  32  21 W8          N/A
RUSSELLVILLE     N/A     73 N/A N/A MISG        N/A
SHOALS AIRPORT CLEAR     74  61  63 W6        30.04R
$$

ALZ005>007-016-260000-
NORTH CENTRAL ALABAMA

CITY           SKY/WX    TMP DP  RH WIND       PRES   REMARKS
CULLMAN AG STN   N/A     71  32  23 W3          N/A
DECATUR AP     CLEAR     72  59  63 W3        30.03S
HUNTSVILLE AP  MOCLDY    75  58  55 SW3       30.03S
HUN NWS/UAH      N/A     73  58  58 W2          N/A
MERIDIANVILLE  CLEAR     70  54  56 CALM      30.03R
VINEMONT AP    FAIR      71  61  70 CALM      30.07R
$$

ALZ008>010-260000-
NORTHEAST ALABAMA

CITY           SKY/WX    TMP DP  RH WIND       PRES   REMARKS
ALBERTVILLE    CLEAR     70  63  78 CALM      30.04S
FORT PAYNE     CLEAR     66  54  63 CALM      30.02S
SCOTTSBORO AP  PTCLDY    72  57  60 SW3       30.03S
SCOTTSBORO HCN   N/A     70 N/A N/A MISG        N/A
VALLEY HEAD      N/A     66 N/A N/A MISG        N/A
$$

TNZ076-096-097-260000-
SOUTHEASTERN MIDDLE TENNESSEE

CITY           SKY/WX    TMP DP  RH WIND       PRES   REMARKS
TULLAHOMA      CLEAR     68  57  68 CALM      30.04S
WINCHESTER     MOCLDY    72  59  64 CALM      30.04R
$$

...SURROUNDING SITES...

CITY           SKY/WX    TMP DP  RH WIND       PRES   REMARKS
ATLANTA        PTCLDY    69  45  41 NW8       30.02R
ANNISTON       CLEAR     67  55  65 CALM      30.04S
BIRMINGHAM     CLEAR     72  57  59 W6        30.06S
CHATTANOOGA    MOCLDY    71  56  58 CALM      30.02R
CORINTH        FAIR      75  63  64 CALM      30.02S
DALTON         CLEAR     63  55  77 CALM      30.02R
GADSDEN        CLEAR     70  55  60 CALM      30.03S
GOLDEN TRNGL   CLEAR     81  61  50 W6        30.04S
HALEYVILLE     FAIR      72  62  70 W3        30.08R
JACKSON TN     CLEAR     73  63  70 W6        30.02R
MEMPHIS        CLEAR     78  62  57 SW3       30.02S
NASHVILLE      PTCLDY    74  62  66 NW6       30.01R
OXFORD MS      FAIR      72  64  78 CALM      30.05F
ROME           MOCLDY    69  53  56 SW3       30.01S
SAVANNAH       CLOUDY    75  64  69 CALM      30.03R
TUPELO         CLEAR     76  63  64 CALM      30.03S
TUSCALOOSA     CLEAR     75  60  59 CALM      30.04S
$$

...GULF COAST WEATHER...

CITY           SKY/WX    TMP DP  RH WIND       PRES   REMARKS
GULFPORT       CLEAR     73  60  63 CALM      30.04S
PASCAGOULA     CLEAR     74  57  55 CALM      30.05R
MOBILE         CLEAR     73  57  57 N3        30.05S
GULF SHORES    CLEAR     73  54  50 CALM      30.03S
PENSACOLA      CLEAR     73  50  44 N7        30.02S
DESTIN         CLEAR     74  53  48 N8        30.02R
PANAMA CITY    CLEAR     73  48  42 N5        30.01R
APPALACHICOLA  CLEAR     73  49  42 N6        29.99S
$$





U.S. Dept. of Commerce
NOAA National Weather Service
1325 East West Highway
Silver Spring, MD 20910
E-mail: w-nws.webmaster@noaa.gov
Page last modified: May 16, 2007
NATIONAL WEATHER SERVICE: for Safety, for Work, for Fun - FOR LIFE